IUS DEB, 29037

Orbit data source: Space-Track

IUS DEB, 29037 is space debris originally from a launch on Fri, 23 Jul 1999 UTC launched from the Air Force Eastern Test Range (AFETR). Debris objects in space refer to the collection of defunct objects orbiting the Earth. Examples of debris include non-operational satellites, rocket bodies, and fragments generated from explosions, collisions, or faulty payload assembly.

Loading next visibility...
Identifier
29037, 1999-040G
Orbit
Active
Country
Flag of USUS
Related business
Manufacturer
Boeing/Kent
Mission
Spacecraft
Bus & Motor
Unknown
Mass
Unknown
Launch date (UTC)
1999-07-23 (27 years ago)
Launch vehicle
Unknown
Launch site
Air Force Eastern Test Range (AFETR)
Object type
Payload
Rocket body
Debris
Shape & HBR
Unknown shape, 0.1 m
Radar Cross Section
Medium (>0.1 m² and <1 m²)

Expand to show TLE details & history
Last TLE update: 1 month ago

TLE from 1 month ago
0 IUS DEB
1 29037U 99040G   26130.12390095  .00003520  00000-0  59984-3 0  9992
2 29037  28.4563 297.9243 4370405 180.2943 179.4054  6.67963935268962
Epoch: 2026-05-10T02:58Z
TLE epoch observation values (Epoch: 2026-05-10T02:58:25.042Z)
Latitude
0.00001°
Longitude
25.38849°
Altitude
10,734.262 km
Speed
3.623 km/s
True Right ascension
19h 51m 41s
True Declination
0° 00' 00"
Sunlit
Object was in daylight at epoch
Visualization orbit readout
Latitude
Unknown
Longitude
Unknown
Altitude
Unknown
Speed
Unknown
Apparent Right ascension
Unknown
Apparent Declination
Unknown
Sunlit
N/A
Visualization observer readout
Local Sidereal Time
23:19:53
Azimuth
Unknown
Elevation
Unknown
Doppler factor
Unknown
Orbital elements
Apogee altitude
10,741.373 km
Perigee altitude
328.418 km
Semi-major axis
11,913.032 km
Eccentricity
0.43704
Inclination
28.4563°
RAAN
297.9243°
Arg. of periapsis
180.2943°
True anomaly
179.74102°
Mean anomaly
179.4054°
Eccentric anomaly
179.58623°
Mean motion
1.66921 °/min
Orbital period
215.67 mins
BSTAR
0.00059984
Loading maneuver chart data...
Computing Atmospheric mass density...
Loading historical data...
Loading historical data...
Loading historical data...
Loading historical data...
Loading historical data...
Loading historical data...
Loading historical data...

Documentation

Showing up to 5 results
|